This is the latest recevied weather packets stored in our database for station/object W3JBS-2. If no packets are shown the sender has not sent any weather packets the latest 10 day(s).
| Time | Temp. | Humidity | Pressure | Rain* | Wind** | Luminosity | Snow |
|---|---|---|---|---|---|---|---|
| 1778079122 | 17.22° C | 78% | 1008.9 hPa | 0.51 mm | - | 1775 W/m² | - |
| 1778078222 | 17.22° C | 76% | 1008.9 hPa | 0.25 mm | - | 1775 W/m² | - |
| 1778077322 | 17.78° C | 72% | 1008.9 hPa | 0 mm | - | 1775 W/m² | - |
| 1778076422 | 18.33° C | 70% | 1008.9 hPa | 0 mm | - | 1775 W/m² | - |
| 1778075522 | 18.89° C | 69% | 1008.8 hPa | 0 mm | - | 1775 W/m² | - |
| 1778074622 | 18.89° C | 68% | 1008.6 hPa | 0 mm | - | 1775 W/m² | - |
| 1778073722 | 18.33° C | 71% | 1008.8 hPa | 0 mm | - | 1775 W/m² | - |
| 1778072822 | 18.33° C | 70% | 1008.8 hPa | 0 mm | - | 1775 W/m² | - |
| 1778071922 | 18.33° C | 70% | 1009 hPa | 0 mm | - | 1775 W/m² | - |
| 1778071022 | 18.89° C | 69% | 1009 hPa | 0 mm | - | 1774 W/m² | - |
| 1778070122 | 18.33° C | 70% | 1008.9 hPa | 0 mm | - | 1775 W/m² | - |
| 1778069222 | 18.89° C | 70% | 1008.7 hPa | 0 mm | - | 1774 W/m² | - |
| 1778068322 | 18.33° C | 70% | 1008.7 hPa | 0 mm | - | 1774 W/m² | - |
| 1778067422 | 18.33° C | 71% | 1008.5 hPa | 0 mm | - | 1775 W/m² | - |
| 1778066522 | 17.78° C | 72% | 1008.6 hPa | 0 mm | - | 1775 W/m² | - |
| 1778065622 | 17.78° C | 72% | 1008.6 hPa | 0 mm | - | 1775 W/m² | - |
| 1778064722 | 17.78° C | 73% | 1008.5 hPa | 0 mm | - | 1775 W/m² | - |
| 1778063821 | 17.78° C | 73% | 1008.4 hPa | 0 mm | - | 1775 W/m² | - |
| 1778062922 | 17.78° C | 73% | 1008.5 hPa | 0 mm | - | 1775 W/m² | - |
| 1778062021 | 17.78° C | 73% | 1008.3 hPa | 0 mm | - | 1775 W/m² | - |
| 1778061122 | 17.78° C | 73% | 1008.3 hPa | 0 mm | - | 1777 W/m² | - |
| 1778060222 | 17.78° C | 72% | 1008.4 hPa | 0 mm | - | 1777 W/m² | - |
| 1778059322 | 17.78° C | 72% | 1008.4 hPa | 0 mm | - | 1777 W/m² | - |
| 1778058422 | 18.33° C | 71% | 1008.3 hPa | 0 mm | - | 1777 W/m² | - |
| 1778057522 | 18.33° C | 71% | 1008.4 hPa | 0 mm | - | 1777 W/m² | - |
* Rain latest hour (hover to see other rain measurements)
** Current wind speed in m/s (hover to see current wind gust speed)